Orbital Elements at Epoch 2459000.5 (2020-May-31.0) TDB
Reference: JPL 16 (heliocentric ecliptic J2000)
Element | Value | Uncertainty (1-sigma) | Units |
e | .1322729337990744 | 6.1676e-08 | |
a | 2.663759225494236 | 2.5342e-08 | au |
q | 2.311415977803763 | 1.6445e-07 | au |
i | 15.24113374462645 | 6.4056e-06 | deg |
node | 75.91233250696656 | 2.2841e-05 | deg |
peri | 353.3341393979642 | 3.3205e-05 | deg |
M | 214.3418705624449 | 2.7285e-05 | deg |
tp | 2459642.999959657743 (2022-Mar-04.49995966) | 0.00012496 | TDB |
period | 1587.96482125598 4.35 | 2.2661e-05 6.204e-08 | d yr |
n | .2267052740597003 | 3.2351e-09 | deg/d |
Q | 3.016102473184709 | 2.8694e-08 | au |
|
| | Orbit Determination Parameters
Additional Information
|